Regional Weather Roundup
Issued by NWS Boston, MA

Home | Current Version | Previous Version | Text Only | Print | Product List | Glossary On
Versions: 1 2 3 4 5 6 7 8 9 10 11 12 13 14 15 16 17 18 19 20 21 22 23 24 25 26 27 28 29 30 31 32 33 34 35 36 37 38 39 40 41 42 43 44 45 46 47 48 49 50
000
ASUS41 KBOX 011610
RWRBOX

REGIONAL WEATHER ROUNDUP
NATIONAL WEATHER SERVICE TAUNTON MA
1200 PM EDT SAT OCT 01 2016

NOTE:  "FAIR" INDICATES FEW OR NO CLOUDS BELOW 12,000 FEET WITH NO
SIGNIFICANT WEATHER AND/OR OBSTRUCTIONS TO VISIBILITY.

MAZALL-011700-
EASTERN MASSACHUSETTS

CITY           SKY/WX    TMP DP  RH WIND       PRES   REMARKS
BOSTON         DRIZZLE   58  57  97 NE14      30.28F FOG
BEVERLY        LGT RAIN  57  57 100 NE12      30.29S FOG
LAWRENCE       LGT RAIN  54  52  93 NE13      30.33F FOG
BEDFORD        LGT RAIN  54  53  97 N13       30.28F FOG
BLUE HILL        N/A     55  55 100 NE14G25   30.25F
NORWOOD        LGT RAIN  58  56  93 NE12G18   30.26F FOG
MARSHFIELD     HVY RAIN  59  59 100 NE13G18   30.25F VSB 3/4
PLYMOUTH       LGT RAIN  60  58  92 NE14G22   30.24F FOG
TAUNTON        LGT RAIN  60  58  92 NE12G18   30.23F FOG
NEW BEDFORD    LGT RAIN  63  60  90 NE12G20   30.20F FOG
$$

MAZALL-011700-
CAPE COD AND THE ISLANDS

CITY           SKY/WX    TMP DP  RH WIND       PRES   REMARKS
FALMOUTH         N/A     61  61 100 NE17G28     N/A
HYANNIS        RAIN      61  60  97 NE14      30.19F FOG
CHATHAM        RAIN     N/A N/A N/A E15       30.21F VSB 1
PROVINCETOWN   RAIN      59  59 100 NE17      30.23F FOG
NANTUCKET      LGT RAIN  63  61  93 E16       30.15F FOG
MARTHAS VNYRD  LGT RAIN  63  62  97 NE16G28   30.18F FOG
$$

MAZALL-011700-
CENTRAL AND WESTERN MASSACHUSETTS

CITY           SKY/WX    TMP DP  RH WIND       PRES   REMARKS
WORCESTER      FOG       50  49  96 NE12G21   30.27F VSB 1/2
FITCHBURG      CLOUDY    54  50  86 N8        30.32F FOG
ORANGE         CLOUDY    52  52 100 N7        30.30F FOG
SPRINGFIELD    DRIZZLE   52  51  94 N12       30.27F FOG
WESTFIELD      CLOUDY    52  51  97 N12       30.28F FOG
NORTH ADAMS    CLOUDY    57  48  72 E14       30.28F
PITTSFIELD     CLOUDY    54  48  80 NE9       30.26F
$$

RIZALL-011700-
RHODE ISLAND

CITY           SKY/WX    TMP DP  RH WIND       PRES   REMARKS
PROVIDENCE     CLOUDY    61  58  90 NE14      30.24F FOG
NEWPORT        CLOUDY    62  60  93 N14       30.21F FOG
BLOCK ISLAND   CLOUDY    61  60  97 NE17G24   30.19F FOG
SMITHFIELD     LGT RAIN  57  56  96 NE12      30.26F FOG
WESTERLY       CLOUDY    63  57  81 NE10G20   30.21F HAZE
$$

CTZALL-011700-
CONNECTICUT

CITY           SKY/WX    TMP DP  RH WIND       PRES   REMARKS
BRADLEY INTL   DRIZZLE   54  52  93 N12       30.27F FOG
HARTFORD       CLOUDY    53  53 100 N13       30.25F FOG
BRIDGEPORT     CLOUDY    61  53  75 NE12      30.22S
DANBURY        CLOUDY    57  54  89 NE7G16    30.25R
GROTON         CLOUDY    65  58  78 NE17G24   30.19F
NEW HAVEN      CLOUDY    58  53  84 N13       30.22F
CHESTER        CLOUDY    59  57  94 NE7G15    30.22F FOG
MERIDEN        CLOUDY    56  52  86 N6        30.24F
WILLIMANTIC    CLOUDY    60  56  86 NE10      30.25F
OXFORD         CLOUDY    55  50  82 NE10G20   30.25R
$$

MEZ002-015-021-024-NHZ003-005-008-011-012-014-VTZ005-008-011700-
NORTHERN NEW ENGLAND

CITY           SKY/WX    TMP DP  RH WIND       PRES   REMARKS
PORTLAND ME    LGT RAIN  56  47  71 NE9       30.36F
BANGOR ME      CLOUDY    60  44  55 NE6       30.38F
CONCORD NH     CLOUDY    56  46  69 VRB7      30.34F
MANCHESTER NH  DRIZZLE   53  47  79 NE9       30.32F
NASHUA NH      CLOUDY    53  51  93 N7        30.33F
PORTSMOUTH NH  LGT RAIN  54  50  88 N10       30.32S
JAFFREY NH     CLOUDY    49  47  93 VRB5      30.33F FOG
KEENE NH       LGT RAIN  53  47  79 NE7       30.33F
BURLINGTON VT  CLOUDY    59  46  62 W3        30.32F
MT. WASHINGTON LGT RAIN  48  39  71 SE14        N/A
$$

NYZ052-076-011700-
EASTERN NEW YORK

CITY           SKY/WX    TMP DP  RH WIND       PRES   REMARKS
ALBANY         CLOUDY    56  49  77 NW6       30.28F
NEW YORK CITY  CLOUDY    63  57  81 NE18      30.21S
$$

ANZALL-011700-
MARINE OBSERVATIONS

STATION/POSITION TIME  TEMP    WIND        PRES    VSBY  WAVE
                       AIR SEA DIR/SP/G                  HT/PER
                 (UTC) (F)     (DEG/KT/KT) (MB)    (MI)  (FT/S)
BOSTON BUOY      1550   59 61   50/ 19/ 23 1024.4F         7/ 8
BUZZARDS BAY     1600   61      40/ 26/ 29 1022.0F
NANTUCKET SOUND  1550   62 63   60/ 17/ 19 1021.2F         3/ 4
MASS BAY-STELLWA 1504   59 60   40/ 19/ 21 1024.9F  1 3/4  6/ 8
ISLE OF SHOALS   1600   57      40/ 20/ 22 1025.8F
S OF BLOCK IS    1555      64                N/A           7/ 8
$$

......................KEY.........................
  SKY/WX - SKY CONDITION/PRESENT WEATHER
  TMP    - TEMPERATURE IN FAHRENHEIT
  DWPT   - DEWPOINT IN FAHRENHEIT
  RH     - RELATIVE HUMIDITY IN PERCENT
  WIND   - DIRECTION AND SPEED IN MPH
  PRES   - MEAN SEA LEVEL PRESSURE IN INCHES OF HG
  WCI    - WIND CHILL INDEX
  VSB    - VISIBILITY IN MILES
  HX     - HEAT INDEX
  TC     - TEMPERATURE IN CELSIUS
  VRB    - VARIABLE WIND DIRECTION
  N/A    - NOT AVAILABLE



USA.gov is the U.S. government's official web portal to all federal, state and local government web resources and services.